Погода в Алманчино

Россия / Чувашская Республика     55°41′46″N   47°13′18″E
темп.,
°C
ветер,
м/с
пор.,
м/с
влажн.,
%
обл.,
%
осадки,
мм/ч
давл.,
гПа
погр.,
м
27 октября, ср
ср2700:00+2зюз51272100 0.0 1019416
03:00+1юз51276100 0.0 1019387
06:00+2юз51178100 0.0 1017388
09:00+3юз61272100 0.0 1017501
12:00+5юз71260100 0.0 1016663
15:00+6юз71356100 0.0 1014723
18:00+5юз71462100 0.0 1013620
21:00+5зюз81564100 0.0 1011815
28 октября, чт
чт2800:00+3зюз71496100 0.3 1011911
03:00+4з71396100 1.0 1011798
06:00+5з71284100 0.0 1011745
09:00+6зюз61279100 0.1 1012613
12:00+7зюз61069100 0.1 1012809
15:00+8зюз5868100 0.1 1011894
18:00+6юз4787100 0.8 1012989
21:00+5ссз2493100 3.6 1013606
29 октября, пт
пт2900:00+5с5989100 0.3 1016632
03:00+2ссв697629 0.4 1020645
06:00−3ссв49785 0.0 1025413
09:00−2св346566 0.0 1028403
12:00+1всв21475 0.0 1029561
15:00+2ююз224580 0.0 1029513
18:00−1ююз3558100 0.0 102996
21:00+1ююз51159100 0.0 1028337
30 октября, сб
сб3000:00+3юз71567100 0.1 1026478
03:00+5зюз71579100 0.1 1025537
06:00+4зюз7168777 0.0 1025432
09:00+6зюз7168610 0.0 1025486
12:00+9з8157651 0.0 1025596
15:00+9з71480100 0.0 1025597
18:00+7з6148922 0.0 1026413
21:00+6з512915 0.0 1027337
31 октября, вс
вс3100:00+5зюз4119225 0.0 1028254
03:00+4зюз49925 0.0 1028198
06:00+3зюз49915 0.0 1028184
09:00+5зюз411795 0.0 1029291
12:00+9зюз6106125 0.0 1028481
15:00+9зюз6126414 0.0 1027505
18:00+7зюз613765 0.0 1027339
21:00+5зюз5128442 0.0 1027300